Weather History for MYNN - March, 2014

Change the Weather History Date:

Monday, March 10, 2014

  Actual Average Record
Temperature  
Mean Temperature 72 °F -  
Max Temperature 80 °F 81 °F 87 °F (2003)
Min Temperature 64 °F 65 °F 60 °F (1999)
Cooling Degree Days 7    
Growing Degree Days 22 (Base 50)    
Moisture  
Dew Point 60 °F    
Average Humidity 66    
Maximum Humidity 88    
Minimum Humidity 47    
Precipitation  
Precipitation 0.00 in 0.06 in - ()
Sea Level Pressure  
Sea Level Pressure 30.08 in    
Wind  
Wind Speed 1 mph ()    
Max Wind Speed 7 mph    
Max Gust Speed -    
Visibility 6.5 miles    
Events      
Averages and records for this station are not official NWS values.
T = Trace of Precipitation, MM = Missing Value Source: Averaged Metar Reports

Daily Weather History Graph

Daily Weather History Graph

Search for Another Location

Airport or City:

Trip Planner

Search our weather history database for the weather conditions in past years. The results will help you decide how hot, cold, wet, or windy it might be!

Date:

Astronomy

Mar. 10, 2014 Rise Set
Actual Time 7:24 AM EDT 7:16 PM EDT
Civil Twilight 7:01 AM EDT 7:39 PM EDT
Nautical Twilight 6:34 AM EDT 8:05 PM EDT
Astronomical Twilight 6:08 AM EDT 8:32 PM EDT
Moon 2:22 PM EDT (3/10) 3:09 AM EDT (3/10)
Length of Visible Light 12h 38m
Length of Day
11h 52m
Waxing Gibbous, 70% of the Moon is Illuminated
Mar 10
Waxing Gibbous
Mar 16
Full
Mar 23
Last Quarter
Mar 30
New
Apr 7
First Quarter

Hourly Weather History & Observations

Time (EDT) Temp. Dew Point Humidity Pressure Visibility Wind Dir Wind Speed Gust Speed Precip Events Conditions
1:00 AM 69.8 °F 59.0 °F 68% 30.12 in 6.2 mi Calm Calm - N/A   Partly Cloudy
2:00 AM 68 °F 62 °F 74% 30.10 in 8 mi Calm Calm - -   Partly Cloudy
2:00 AM 68.0 °F 62.6 °F 83% 30.10 in 6.2 mi Calm Calm - N/A   Scattered Clouds
3:00 AM 66.2 °F 57.2 °F 73% 30.09 in 6.2 mi Calm Calm - N/A   Scattered Clouds
4:00 AM 68.0 °F 59.0 °F 73% 30.07 in 6.2 mi Calm Calm - N/A   Scattered Clouds
5:00 AM 67 °F 62 °F 79% 30.06 in 8 mi Calm Calm - -   Partly Cloudy
5:00 AM 66.2 °F 62.6 °F 88% 30.06 in 6.2 mi Calm Calm - N/A   Scattered Clouds
6:00 AM 66.2 °F 57.2 °F 73% 30.08 in 6.2 mi Calm Calm - N/A   Scattered Clouds
7:00 AM 66.2 °F 59.0 °F 78% 30.09 in 6.2 mi Calm Calm - N/A   Mostly Cloudy
8:00 AM 67 °F 61 °F 75% 30.12 in 9 mi Calm Calm - -   Mostly Cloudy
8:00 AM 66.2 °F 60.8 °F 83% 30.11 in 6.2 mi Calm Calm - N/A   Mostly Cloudy
9:00 AM 71.6 °F 59.0 °F 64% 30.12 in 6.2 mi Calm Calm - N/A   Mostly Cloudy
10:00 AM 75.2 °F 59.0 °F 57% 30.13 in 6.2 mi Variable 2.3 mph - N/A   Scattered Clouds
11:00 AM 77 °F 62 °F 51% 30.14 in 9 mi NE 3.5 mph - -   Partly Cloudy
11:00 AM 77.0 °F 62.6 °F 61% 30.14 in 6.2 mi NE 3.5 mph - N/A   Scattered Clouds
12:00 PM 75.2 °F 57.2 °F 53% 30.13 in 6.2 mi NNE 6.9 mph - N/A   Scattered Clouds
1:00 PM 77.0 °F 55.4 °F 47% 30.11 in 6.2 mi ENE 6.9 mph - N/A   Scattered Clouds
2:00 PM 78.8 °F 60.8 °F 54% 30.08 in 6.2 mi North 5.8 mph - N/A   Partly Cloudy
3:00 PM 77.0 °F 57.2 °F 50% 30.06 in 6.2 mi NNE 4.6 mph - N/A   Partly Cloudy
4:00 PM 77.0 °F 55.4 °F 47% 30.04 in 6.2 mi NNE 3.5 mph - N/A   Partly Cloudy
5:00 PM 75.2 °F 62.6 °F 65% 30.03 in 6.2 mi East 3.5 mph - N/A   Partly Cloudy
6:00 PM 75.2 °F 59.0 °F 57% 30.02 in 6.2 mi NNE 4.6 mph - N/A   Partly Cloudy
7:00 PM 73.4 °F 57.2 °F 57% 30.03 in - North - - N/A   Partly Cloudy
8:00 PM 73 °F 62 °F 60% 30.04 in 9 mi Calm Calm - -   Scattered Clouds
9:00 PM 71.6 °F 59.0 °F 64% 30.03 in 6.2 mi Calm Calm - N/A   Partly Cloudy
10:00 PM 69.8 °F 59.0 °F 68% 30.05 in 3.7 mi North - - N/A   Smoke
11:00 PM 68 °F 61 °F 71% 30.05 in 4 mi Calm Calm - -   Haze
11:00 PM 68.0 °F 62.6 °F 83% 30.05 in - Calm Calm - N/A   Smoke